NOZ666 ENGM-ENAL

Flight info

Callsign NOZ666
Flight time N/A
Altitude 30000
Route EVTOG DCT UTRUF DCT UFGUG DCT OBITI
Aircraft B738/M-SDE2E3FGHIRWXY/LB1

Departure

Time N/A
Airport Oslo-Gardermoen International Airport (ENGM)

Arrival

Time 2026-04-20 19:26
Airport Ålesund Airport (ENAL)
Time Latitude Longitude Altitude Speed Heading
2026-04-20 19:08 62.01605 7.31224 12563 ft 381 kts 323°
2026-04-20 19:08 62.03743 7.27923 11901 ft 378 kts 325°
2026-04-20 19:09 62.05884 7.24807 11649 ft 364 kts 326°
2026-04-20 19:09 62.07920 7.21874 11484 ft 350 kts 326°
2026-04-20 19:09 62.09921 7.18976 11318 ft 337 kts 326°
2026-04-20 19:09 62.11800 7.16227 11178 ft 325 kts 326°
2026-04-20 19:10 62.13629 7.13527 11036 ft 314 kts 325°
2026-04-20 19:10 62.15399 7.10899 10914 ft 304 kts 325°
2026-04-20 19:10 62.17109 7.08348 10789 ft 294 kts 325°
2026-04-20 19:10 62.18761 7.05875 10663 ft 285 kts 325°
2026-04-20 19:11 62.20357 7.03481 10549 ft 276 kts 325°
2026-04-20 19:11 62.21914 7.01141 10329 ft 272 kts 325°
2026-04-20 19:11 62.23439 6.98845 10061 ft 270 kts 326°
2026-04-20 19:11 62.24973 6.96533 9773 ft 268 kts 325°
2026-04-20 19:12 62.26495 6.94234 9494 ft 267 kts 325°
2026-04-20 19:12 62.28012 6.91942 9214 ft 266 kts 325°
2026-04-20 19:12 62.29517 6.89663 8936 ft 264 kts 325°
2026-04-20 19:12 62.31019 6.87386 8663 ft 263 kts 326°
2026-04-20 19:13 62.32515 6.85115 8386 ft 263 kts 325°
2026-04-20 19:13 62.34010 6.82844 8101 ft 262 kts 326°
2026-04-20 19:13 62.35496 6.80582 7825 ft 262 kts 326°
2026-04-20 19:13 62.37018 6.78266 7182 ft 275 kts 325°
2026-04-20 19:14 62.38564 6.75907 6779 ft 277 kts 325°
2026-04-20 19:14 62.40135 6.73506 6455 ft 276 kts 325°
2026-04-20 19:14 62.41703 6.71108 6134 ft 275 kts 325°
2026-04-20 19:14 62.43258 6.68727 5829 ft 273 kts 325°
2026-04-20 19:15 62.44800 6.66361 5532 ft 271 kts 325°
2026-04-20 19:15 62.46341 6.63995 5167 ft 272 kts 325°
2026-04-20 19:15 62.47877 6.61632 4866 ft 270 kts 325°
2026-04-20 19:15 62.49358 6.59351 4759 ft 259 kts 325°
2026-04-20 19:16 62.50849 6.57053 4365 ft 263 kts 325°
2026-04-20 19:16 62.52326 6.54775 4216 ft 256 kts 325°
2026-04-20 19:16 62.53755 6.52565 4077 ft 249 kts 325°
2026-04-20 19:16 62.55143 6.50420 3957 ft 241 kts 325°
2026-04-20 19:17 62.56488 6.48337 3852 ft 234 kts 325°
2026-04-20 19:17 62.57784 6.46326 3748 ft 225 kts 325°
2026-04-20 19:17 62.59062 6.44344 3526 ft 226 kts 325°
2026-04-20 19:17 62.60339 6.42360 3297 ft 226 kts 325°
2026-04-20 19:18 62.61703 6.40700 2982 ft 227 kts 345°
2026-04-20 19:18 62.63185 6.39616 2701 ft 226 kts 325°
2026-04-20 19:18 62.64007 6.36893 2618 ft 216 kts 282°
2026-04-20 19:18 62.63749 6.33764 2325 ft 213 kts 240°
2026-04-20 19:19 62.62809 6.31358 2067 ft 207 kts 226°
2026-04-20 19:19 62.62092 6.28770 1838 ft 195 kts 250°
2026-04-20 19:19 62.61352 6.26529 1613 ft 181 kts 208°
2026-04-20 19:19 62.60212 6.26394 1494 ft 164 kts 159°
2026-04-20 19:20 62.59141 6.26803 1216 ft 154 kts 201°
2026-04-20 19:20 62.59081 6.26760 1207 ft 152 kts 206°
2026-04-20 19:20 62.58760 6.26308 1189 ft 159 kts 230°
2026-04-20 19:20 62.58369 6.23865 1500 ft 191 kts 264°
2026-04-20 19:21 62.58294 6.20957 1446 ft 185 kts 274°
2026-04-20 19:21 62.58520 6.18324 1599 ft 175 kts 289°
2026-04-20 19:21 62.59126 6.16167 1882 ft 165 kts 310°
2026-04-20 19:21 62.59848 6.14389 1876 ft 150 kts 325°
2026-04-20 19:22 62.60777 6.13626 1921 ft 141 kts 345°
2026-04-20 19:22 62.61712 6.13748 1904 ft 137 kts 28°
2026-04-20 19:22 62.62539 6.14853 1906 ft 143 kts 37°
2026-04-20 19:22 62.63041 6.16652 1923 ft 141 kts 74°
2026-04-20 19:23 62.63274 6.18738 1911 ft 143 kts 75°
2026-04-20 19:23 62.63494 6.20858 1911 ft 144 kts 76°
2026-04-20 19:23 62.63691 6.22996 1904 ft 145 kts 83°
2026-04-20 19:23 62.63459 6.25071 1892 ft 144 kts 129°
2026-04-20 19:24 62.62583 6.25982 1888 ft 146 kts 182°
2026-04-20 19:24 62.61586 6.25497 1934 ft 149 kts 195°
2026-04-20 19:24 62.60563 6.24896 1697 ft 154 kts 197°
2026-04-20 19:24 62.59584 6.23960 1286 ft 154 kts 212°
2026-04-20 19:25 62.58736 6.22579 915 ft 151 kts 225°
2026-04-20 19:25 62.58085 6.20912 699 ft 142 kts 239°
2026-04-20 19:25 62.57637 6.19012 593 ft 140 kts 248°
2026-04-20 19:25 62.57261 6.17105 552 ft 133 kts 249°
2026-04-20 19:26 62.56931 6.15326 370 ft 128 kts 251°
2026-04-20 19:26 62.56568 6.13458 168 ft 133 kts 248°
2026-04-20 19:26 62.56195 6.11716 70 ft 118 kts 245°
2026-04-20 19:26 62.55973 6.10697 73 ft 11 kts 235°
2026-04-20 19:27 62.55928 6.10757 71 ft 10 kts 93°
2026-04-20 19:27 62.55915 6.10926 78 ft 13 kts 103°
2026-04-20 19:27 62.55902 6.11127 71 ft 14 kts 77°
2026-04-20 19:27 62.55939 6.11305 75 ft 9 kts 68°
2026-04-20 19:28 62.55903 6.11386 78 ft 6 kts 155°
2026-04-20 19:28 62.55897 6.11391 71 ft 0 kts 155°